timestamp,TimeUS,Alt,Press,Temp,CRt,SMS,Offset,GndTemp,Health
1663666905.73040390,5852330,-0.5059638023376465,102073.875,57.33,0.0,5852,0.0,0.0,1
1663666905.84120989,5963136,-0.591126024723053,102074.96875,57.33,0.0,5963,0.0,0.0,1
1663666905.95227289,6074199,-0.500954270362854,102073.8359375,57.32,0.0,6074,0.0,0.0,1
1663666906.06343198,6185358,-0.661259651184082,102075.8359375,57.31,0.0,6185,0.0,0.0,1
1663666906.17450500,6296431,-0.581106960773468,102074.859375,57.29,0.0,6296,0.0,0.0,1
1663666906.28562403,6407550,-0.5460401773452759,102074.375,57.27,-0.1993246078491211,6407,0.0,0.0,1
1663666906.39673400,6518660,-0.49093517661094666,102073.671875,57.25,-0.05782417207956314,6518,0.0,0.0,1
1663666906.50776696,6629693,-0.6261928081512451,102075.421875,57.230000000000004,0.16359993815422058,6629,0.0,0.0,1
1663666906.61882997,6740756,-0.5660783052444458,102074.640625,57.21,0.14808622002601624,6740,0.0,0.0,1
1663666906.72991204,6851838,-0.41078248620033264,102072.6484375,57.19,-0.025386085733771324,6851,0.0,0.0,1
1663666906.84102583,6962952,-0.42581114172935486,102072.84375,57.160000000000004,0.09026209264993668,6962,0.0,0.0,1
1663666906.94191599,7063842,-0.3506679832935333,102071.921875,57.15,0.4324037432670593,7063,0.0,0.0,1
1663666907.04280090,7164727,-0.32061073184013367,102071.484375,57.120000000000005,0.5643093585968018,7164,0.0,0.0,1
1663666907.14365602,7265582,-0.4809160828590393,102073.5546875,57.11,0.4209078550338745,7265,0.0,0.0,1
1663666907.24450088,7366427,-0.42581114172935486,102072.84375,57.09,0.12005867063999176,7366,0.0,0.0,1
1663666908.27906799,8400994,-0.011302878148853779,102072.625,57.050000000000004,-0.1531423181295395,8400,0.0,35.0,1
1663666908.37905192,8500978,-0.9776989817619324,102083.609375,57.15,-0.10311678051948547,8500,0.0,35.0,1
1663666908.47911000,8601036,-0.6329611539840698,102079.7265625,57.15,-0.15103228390216827,8601,0.0,35.0,1
1663666908.57906985,8700996,-0.011302878148853779,102072.65625,57.14,-0.17123131453990936,8700,0.0,35.0,1
1663666908.67917800,8801104,-0.5934010744094849,102079.265625,57.160000000000004,-0.8248767256736755,8801,0.0,35.0,1
1663666908.77919292,8901119,0.1638917326927185,102070.6875,57.14,0.8562178015708923,8901,0.0,35.0,1
1663666908.87922096,9001147,-0.2712690830230713,102075.578125,57.13,1.404138207435608,9001,0.0,35.0,1
1663666908.97920895,9101135,-0.604703962802887,102079.40625,57.14,0.8408617377281189,9101,0.0,35.0,1
1663666909.07915592,9201082,-0.2938748300075531,102075.8515625,57.15,-0.13060587644577026,9201,0.0,35.0,1
1663666909.17915082,9301077,-0.48602375388145447,102078.0546875,57.17,-0.9746264815330505,9301,0.0,35.0,1
1663666909.27909398,9401020,0.06216583028435707,102071.8359375,57.15,-0.6428511142730713,9401,0.0,35.0,1
1663666909.37916589,9501092,-0.327783465385437,102076.25,57.18,0.4485829770565033,9501,0.0,35.0,1
1663666909.47908998,9601016,-0.8138072490692139,102081.75,57.2,0.7329209446907043,9601,0.0,35.0,1
1663666909.57920694,9701133,-1.0455162525177002,102084.359375,57.21,-0.5404188632965088,9701,0.0,35.0,1
1663666909.67924595,9801172,-0.6160068511962891,102079.5234375,57.22,-2.1687397956848145,9801,0.0,35.0,1
1663666909.77929497,9901221,-0.5425381660461426,102078.6875,57.24,-1.986834168434143,9901,0.0,35.0,1
1663666909.87932181,10001248,-0.5538410544395447,102078.78125,57.25,-0.15188241004943848,10001,0.0,35.0,1
1663666909.97919989,10101126,-0.8251100778579712,102081.8671875,57.26,0.9554463624954224,10101,0.0,35.0,1
1663666910.07918596,10201112,-1.1981050968170166,102086.109375,57.28,0.2525486946105957,10201,0.0,35.0,1
1663666910.17917895,10301105,-0.983350396156311,102083.671875,57.300000000000004,-1.1497145891189575,10301,0.0,35.0,1
1663666910.27919483,10401121,-1.2376651763916016,102086.5390625,57.29,-1.751945972442627,10401,0.0,35.0,1
1663666910.37917686,10501103,-1.0398647785186768,102084.3046875,57.31,-1.257445216178894,10501,0.0,35.0,1
1663666910.47924399,10601170,-1.0511677265167236,102084.4453125,57.32,-0.4856705665588379,10601,0.0,35.0,1
1663666910.57925987,10701186,-0.9890018105506897,102083.7421875,57.33,0.044151823967695236,10701,0.0,35.0,1
1663666910.67929983,10801226,-0.983350396156311,102083.65625,57.35,0.3514488637447357,10801,0.0,35.0,1
1663666910.77934694,10901273,-1.5428428649902344,102089.9921875,57.36,0.222525492310524,10901,0.0,35.0,1
1663666910.87920284,11001129,-1.531540036201477,102089.890625,57.370000000000005,-0.6145939230918884,11001,0.0,35.0,1
1663666910.97919488,11101121,-1.130287766456604,102085.3359375,57.370000000000005,-1.4940992593765259,11101,0.0,35.0,1
1663666911.07918501,11201111,-0.8703216314315796,102082.3984375,57.38,-0.9766393303871155,11201,0.0,35.0,1
1663666911.17919397,11301120,-0.655566930770874,102079.9296875,57.38,0.8901017308235168,11301,0.0,35.0,1
1663666911.27917194,11401098,-1.1585450172424316,102085.640625,57.4,2.0875003337860107,11401,0.0,35.0,1
1663666911.37923098,11501157,-1.531540036201477,102089.859375,57.4,1.2115272283554077,11501,0.0,35.0,1
1663666911.47923994,11601166,-0.8364129662513733,102082.0234375,57.4,-0.7346871495246887,11601,0.0,35.0,1
1663666911.57928586,11701212,-0.9268360137939453,102083.0,57.410000000000004,-1.262743353843689,11701,0.0,35.0,1
1663666911.67935395,11801280,-1.2376651763916016,102086.5625,57.42,0.049450166523456573,11801,0.0,35.0,1
1663666911.77919984,11901126,-1.20375657081604,102086.1484375,57.42,0.6746404767036438,11901,0.0,35.0,1
1663666911.87918687,12001113,-1.2263622283935547,102086.421875,57.44,-0.23842012882232666,12001,0.0,35.0,1
1663666911.97918797,12101114,-1.3846025466918945,102088.203125,57.45,-0.8742069602012634,12101,0.0,35.0,1
1663666912.07918787,12201114,-1.350693941116333,102087.8125,57.45,-0.7152600884437561,12201,0.0,35.0,1
1663666912.17917204,12301098,-1.537191390991211,102089.9453125,57.46,-0.6145938634872437,12301,0.0,35.0,1
1663666912.27923203,12401158,-1.5597971677780151,102090.203125,57.45,-0.711728036403656,12401,0.0,35.0,1
1663666912.37925386,12501180,-1.638917326927185,102091.078125,57.46,-0.7912014722824097,12501,0.0,35.0,1
1663666912.47929287,12601219,-1.311133861541748,102087.40625,57.46,-0.6711083650588989,12601,0.0,35.0,1
1663666912.57934594,12701272,-0.8194586634635925,102081.796875,57.45,0.06711079925298691,12701,0.0,35.0,1
1663666912.67921400,12801140,-1.5484943389892578,102090.078125,57.47,1.223889708518982,12801,0.0,35.0,1
1663666912.77920485,12901131,-1.2150593996047974,102086.265625,57.46,1.395198941230774,12901,0.0,35.0,1
1663666912.87917495,13001101,-1.3676482439041138,102087.9921875,57.47,0.21899321675300598,13001,0.0,35.0,1
1663666912.97919703,13101123,-1.5145856142044067,102089.703125,57.47,-0.6499154567718506,13101,0.0,35.0,1
1663666913.07917285,13201099,-1.3450424671173096,102087.75,57.480000000000004,-0.596933126449585,13201,0.0,35.0,1
1663666913.17924595,13301172,-1.1754993200302124,102085.8125,57.47,-0.32495757937431335,13301,0.0,35.0,1
1663666913.27925587,13401182,-1.3846025466918945,102088.2265625,57.46,0.13598781824111938,13401,0.0,35.0,1
1663666913.37930703,13501233,-1.2320137023925781,102086.46875,57.47,0.503331184387207,13501,0.0,35.0,1
1663666913.47933602,13601262,-1.4467684030532837,102088.8984375,57.47,0.26667723059654236,13601,0.0,35.0,1
1663666913.57924795,13701174,-1.6332658529281616,102091.0390625,57.47,-0.2525486946105957,13701,0.0,35.0,1
1663666913.67918587,13801112,-0.9211845397949219,102082.9453125,57.47,-0.5368866920471191,13801,0.0,35.0,1
1663666913.77919197,13901118,-0.8533673286437988,102082.1875,57.46,0.05298224091529846,13901,0.0,35.0,1
1663666913.87919688,14001123,-1.311133861541748,102087.3359375,57.480000000000004,1.3174917697906494,14001,0.0,35.0,1
1663666913.97919297,14101119,-2.0514724254608154,102095.71875,57.480000000000004,1.1320537328720093,14101,0.0,35.0,1
1663666914.07922697,14201153,-1.4241626262664795,102088.6328125,57.49,-1.1249897480010986,14201,0.0,35.0,1
1663666914.17924094,14301167,-1.20375657081604,102086.15625,57.480000000000004,-2.36653995513916,14301,0.0,35.0,1
1663666914.27929282,14401219,-1.062470555305481,102084.5703125,57.480000000000004,-0.6587458848953247,14401,0.0,35.0,1
1663666914.37934184,14501268,-1.3619967699050903,102087.953125,57.480000000000004,1.4764385223388672,14501,0.0,35.0,1
1663666914.47920895,14601135,-1.825414776802063,102093.171875,57.480000000000004,1.2662757635116577,14601,0.0,35.0,1
1663666914.57918501,14701111,-1.1754993200302124,102085.8046875,57.480000000000004,-0.475073903799057,14701,0.0,35.0,1
1663666914.67917395,14801100,-1.5089342594146729,102089.625,57.46,-1.1832698583602905,14801,0.0,35.0,1
1663666914.77921104,14901137,-1.3846025466918945,102088.203125,57.47,-0.32319173216819763,14901,0.0,35.0,1
1663666914.87919283,15001119,-1.3280881643295288,102087.5703125,57.46,0.3832380771636963,15001,0.0,35.0,1
1663666914.97922993,15101156,-0.9155331254005432,102082.8984375,57.46,0.43445438146591187,15101,0.0,35.0,1
1663666915.07925487,15201181,-1.537191390991211,102089.9453125,57.47,0.6975995898246765,15201,0.0,35.0,1
1663666915.17930102,15301227,-1.458071231842041,102089.0078125,57.47,0.6092959046363831,15301,0.0,35.0,1
1663666915.27934289,15401269,-1.0794248580932617,102084.7265625,57.47,-0.28433796763420105,15401,0.0,35.0,1
1663666915.37920785,15501134,-1.2263622283935547,102086.390625,57.47,-0.48743659257888794,15501,0.0,35.0,1
1663666915.47919488,15601121,-1.2998310327529907,102087.265625,57.47,0.33555421233177185,15601,0.0,35.0,1
1663666915.57917285,15701099,-1.164196491241455,102085.6953125,57.47,0.5810384750366211,15701,0.0,35.0,1
1663666915.67918491,15801111,-1.7236889600753784,102092.03125,57.47,-0.03532170131802559,15801,0.0,35.0,1
1663666915.77917099,15901097,-0.983350396156311,102083.640625,57.46,-0.5598458647727966,15901,0.0,35.0,1
1663666915.87923598,16001162,-1.0059561729431152,102083.890625,57.47,-0.3355542719364166,16001,0.0,35.0,1
1663666915.97925687,16101183,-1.1585450172424316,102085.6171875,57.46,0.6711084842681885,16101,0.0,35.0,1
1663666916.07929802,16201224,-0.785550057888031,102081.4140625,57.46,1.2892346382141113,16201,0.0,35.0,1
1663666916.17935896,16301285,-1.0116076469421387,102083.984375,57.45,0.9466160535812378,16301,0.0,35.0,1
1663666916.27920699,16401133,-1.8480205535888672,102093.4765625,57.480000000000004,0.2702093720436096,16401,0.0,35.0,1
1663666916.37918091,16501107,-1.2885280847549438,102087.125,57.46,-0.9183588027954102,16501,0.0,35.0,1
1663666916.47917485,16601101,-1.1754993200302124,102085.859375,57.46,-1.8755712509155273,16601,0.0,35.0,1
1663666916.57919884,16701125,-1.4637227058410645,102089.078125,57.45,-1.0154927968978882,16701,0.0,35.0,1
1663666916.67918086,16801107,-1.8310662508010864,102093.25,57.46,0.15894675254821777,16801,0.0,35.0,1
1663666916.77922797,16901154,-1.0455162525177002,102084.3515625,57.46,-0.26314517855644226,16901,0.0,35.0,1
1663666916.87926388,17001190,-1.2376651763916016,102086.5234375,57.46,-0.5298224091529846,17001,0.0,35.0,1
1663666916.97928786,17101214,-1.0737733840942383,102084.7109375,57.44,0.6428511142730713,17101,0.0,35.0,1
1663666917.07932901,17201255,-0.9494417905807495,102083.3046875,57.45,1.4852688312530518,17201,0.0,35.0,1
1663666917.17919993,17301126,-1.718037486076355,102092.0,57.45,0.9784054756164551,17301,0.0,35.0,1
1663666917.27919388,17401120,-1.164196491241455,102085.703125,57.44,-0.18190571665763855,17401,0.0,35.0,1
1663666917.37917995,17501106,-1.164196491241455,102085.7265625,57.44,-0.9519144892692566,17501,0.0,35.0,1
1663666917.47918701,17601113,-1.5993572473526,102090.6484375,57.45,-0.5616118311882019,17601,0.0,35.0,1
1663666917.57918096,17701107,-1.571100115776062,102090.296875,57.45,-0.10243229568004608,17701,0.0,35.0,1
1663666917.67922187,17801148,-1.20375657081604,102086.140625,57.45,-0.5757402777671814,17801,0.0,35.0,1
1663666917.77926683,17901193,-1.3054823875427246,102087.328125,57.46,-0.5563136339187622,17901,0.0,35.0,1
1663666917.87931085,18001237,-1.2998310327529907,102087.2578125,57.45,0.3991329073905945,18001,0.0,35.0,1
1663666917.97933793,18101264,-0.983350396156311,102083.6640625,57.44,0.8459498882293701,18101,0.0,35.0,1
1663666918.07921386,18201140,-1.130287766456604,102085.3046875,57.44,0.7311550378799438,18201,0.0,35.0,1
1663666918.17918396,18301110,-0.7629442811012268,102081.1640625,57.44,0.8477159738540649,18301,0.0,35.0,1
1663666918.27917385,18401100,-1.2772252559661865,102087.0,57.45,0.9201250672340393,18401,0.0,35.0,1
1663666918.37919283,18501119,-1.1924536228179932,102086.0,57.44,0.40796327590942383,18501,0.0,35.0,1
1663666918.47918296,18601109,-1.2941795587539673,102087.1875,57.45,-0.4892027974128723,18601,0.0,35.0,1
1663666918.57922888,18701155,-1.062470555305481,102084.5546875,57.44,-0.900698184967041,18701,0.0,35.0,1
1663666918.67925882,18801185,-1.2546194791793823,102086.75,57.45,-0.43975260853767395,18801,0.0,35.0,1
1663666918.77928901,18901215,-1.164196491241455,102085.6953125,57.44,0.10596447438001633,18901,0.0,35.0,1
1663666918.87931800,19001244,-1.5089342594146729,102089.5859375,57.45,0.024724969640374184,19001,0.0,35.0,1
1663666918.97920084,19101127,-1.1754993200302124,102085.8046875,57.45,-0.4220919609069824,19101,0.0,35.0,1
1663666919.07920885,19201135,-1.497631311416626,102089.5,57.44,-0.602231502532959,19201,0.0,35.0,1
1663666919.17917991,19301106,-1.6502201557159424,102091.21875,57.44,-0.5050972104072571,19301,0.0,35.0,1
1663666919.27918983,19401116,-1.169847846031189,102085.78125,57.45,-0.5633776187896729,19401,0.0,35.0,1
1663666919.37917686,19501103,-1.4354655742645264,102088.7890625,57.45,-0.4026648700237274,19501,0.0,35.0,1
1663666919.47922087,19601147,-0.6160068511962891,102079.5078125,57.44,0.4662436246871948,19601,0.0,35.0,1
1663666919.57925391,19701180,-0.7798985838890076,102081.375,57.43,1.5612099170684814,19701,0.0,35.0,1
1663666919.67926693,19801193,-1.0398647785186768,102084.296875,57.42,2.0963306427001953,19801,0.0,35.0,1
1663666919.77934504,19901271,-1.1981050968170166,102086.0703125,57.43,1.3280882835388184,19901,0.0,35.0,1
1663666919.87920284,20001129,-1.7745518684387207,102092.5859375,57.45,-0.5545474290847778,20001,0.0,35.0,1
1663666919.97918892,20101115,-1.5654486417770386,102090.2578125,57.44,-2.1422483921051025,20101,0.0,35.0,1
1663666920.07918692,20201113,-0.8533673286437988,102082.1875,57.43,-2.204061508178711,20201,0.0,35.0,1
1663666920.17920089,20301127,-1.090727686882019,102084.8984375,57.43,-0.4379865825176239,20301,0.0,35.0,1
1663666920.27917099,20401097,-1.090727686882019,102084.90625,57.43,1.557677984237671,20401,0.0,35.0,1
1663666920.37922096,20501147,-1.5484943389892578,102090.0234375,57.45,1.4870350360870361,20501,0.0,35.0,1
1663666920.47928095,20601207,-1.3393911123275757,102087.71875,57.44,-0.21369493007659912,20601,0.0,35.0,1
1663666920.57929301,20701219,-1.3676482439041138,102088.0078125,57.45,-1.2609775066375732,20701,0.0,35.0,1
1663666920.67932701,20801253,-1.7406432628631592,102092.203125,57.45,-1.0119609832763672,20801,0.0,35.0,1
1663666920.77920485,20901131,-0.932487428188324,102083.1015625,57.43,-0.4803723394870758,20901,0.0,35.0,1
1663666920.87918901,21001115,-0.983350396156311,102083.6796875,57.44,0.17660754919052124,21001,0.0,35.0,1
1663666920.97917390,21101100,-1.0511677265167236,102084.4375,57.44,1.2804043292999268,21101,0.0,35.0,1
1663666921.07919383,21201120,-0.604703962802887,102079.3984375,57.44,1.8084604740142822,21201,0.0,35.0,1
1663666921.17919588,21301122,-1.5484943389892578,102090.0390625,57.44,1.1779718399047852,21301,0.0,35.0,1
1663666921.27922487,21401151,-0.983350396156311,102083.671875,57.43,0.058280378580093384,21401,0.0,35.0,1
1663666921.37924099,21501167,-1.3167853355407715,102087.4609375,57.44,-0.8971659541130066,21501,0.0,35.0,1
1663666921.47928596,21601212,-1.5258885622024536,102089.7890625,57.45,-1.0932002067565918,21601,0.0,35.0,1
1663666921.57934499,21701271,-1.4637227058410645,102089.0859375,57.45,-0.9183588624000549,21701,0.0,35.0,1
1663666921.67920899,21801135,-1.6954317092895508,102091.71875,57.43,-1.0826038122177124,21801,0.0,35.0,1
1663666921.77918291,21901109,-1.6615231037139893,102091.3359375,57.45,-1.1550127267837524,21901,0.0,35.0,1
1663666921.87917686,22001103,-0.734687089920044,102080.8515625,57.44,-0.6181260943412781,22001,0.0,35.0,1
1663666921.97919083,22101117,-1.571100115776062,102090.28125,57.45,0.6004653573036194,22101,0.0,35.0,1
1663666922.07917094,22201097,-0.8251100778579712,102081.859375,57.43,1.585935115814209,22201,0.0,35.0,1
1663666922.17924690,22301173,-0.8251100778579712,102081.8515625,57.43,1.428754448890686,22301,0.0,35.0,1
1663666922.27926588,22401192,-1.2320137023925781,102086.5,57.45,1.0490484237670898,22401,0.0,35.0,1
1663666922.37930894,22501235,-1.429814100265503,102088.7421875,57.44,0.6163602471351624,22501,0.0,35.0,1
1663666922.47933292,22601259,-0.9946532845497131,102083.7734375,57.43,-0.5404189229011536,22601,0.0,35.0,1
1663666922.57926297,22701189,-1.4524198770523071,102088.953125,57.44,-1.1196913719177246,22701,0.0,35.0,1
1663666922.67918992,22801116,-1.1246364116668701,102085.234375,57.43,-0.506863534450531,22801,0.0,35.0,1
1663666922.77918482,22901111,-1.0963791608810425,102084.9453125,57.43,0.014128497801721096,22901,0.0,35.0,1
1663666922.87918782,23001114,-1.2546194791793823,102086.7421875,57.44,0.20663075149059296,23001,0.0,35.0,1
1663666922.97918701,23101113,-1.102030634880066,102084.984375,57.44,0.3337881863117218,23101,0.0,35.0,1
1663666923.07922888,23201155,-0.932487428188324,102083.09375,57.43,0.2543148398399353,23201,0.0,35.0,1
1663666923.17926383,23301190,-1.1472421884536743,102085.5234375,57.44,0.3267238438129425,23301,0.0,35.0,1
1663666923.27930403,23401230,-1.2320137023925781,102086.4765625,57.44,0.406197190284729,23401,0.0,35.0,1
1663666923.37932992,23501256,-0.983350396156311,102083.625,57.44,-0.00706434017047286,23501,0.0,35.0,1
1663666923.47920203,23601128,-1.4072083234786987,102088.4453125,57.43,-0.3673434853553772,23601,0.0,35.0,1
1663666923.57918000,23701106,-1.1868021488189697,102085.9765625,57.44,-0.36381128430366516,23701,0.0,35.0,1
1663666923.67918587,23801112,-1.7067346572875977,102091.828125,57.45,-0.5651438236236572,23801,0.0,35.0,1
1663666923.77920604,23901132,-1.3393911123275757,102087.6796875,57.45,-0.9713411331176758,23901,0.0,35.0,1
1663666923.87917495,24001101,-0.06781727075576782,102073.3203125,57.43,-0.5492493510246277,24001,0.0,35.0,1
1663666923.97922397,24101150,-1.1076821088790894,102085.078125,57.44,1.3969649076461792,24101,0.0,35.0,1
1663666924.07924390,24201170,-1.571100115776062,102090.3359375,57.45,2.608492374420166,24201,0.0,35.0,1
1663666924.17930603,24301232,-1.20375657081604,102086.1796875,57.44,0.526290237903595,24301,0.0,35.0,1
1663666924.27934694,24401273,-1.1359392404556274,102085.3515625,57.45,-2.000962734222412,24401,0.0,35.0,1
1663666924.37927699,24501203,-1.1924536228179932,102086.0,57.44,-1.4393508434295654,24501,0.0,35.0,1
1663666924.47918701,24601113,-1.2263622283935547,102086.421875,57.44,0.21192920207977295,24601,0.0,35.0,1
1663666924.57917190,24701098,-1.1924536228179932,102086.0390625,57.44,0.42209213972091675,24701,0.0,35.0,1
1663666924.67918682,24801113,-0.9607446193695068,102083.40625,57.45,0.06357885897159576,24801,0.0,35.0,1
1663666924.77917695,24901103,-0.5481895804405212,102078.7578125,57.43,0.4238579273223877,24901,0.0,35.0,1
1663666924.87922382,25001150,-1.5541456937789917,102090.1015625,57.44,1.0896681547164917,25001,0.0,35.0,1
1663666924.97925687,25101183,-1.7915061712265015,102092.78125,57.45,0.4097292423248291,25101,0.0,35.0,1
1663666925.07930684,25201233,-0.6386126279830933,102079.7890625,57.43,-1.492333173751831,25201,0.0,35.0,1
1663666925.17933488,25301261,-0.7516413927078247,102081.046875,57.43,-1.4022635221481323,25301,0.0,35.0,1
1663666925.27920294,25401129,-1.0794248580932617,102084.765625,57.44,1.1391180753707886,25401,0.0,35.0,1
1663666925.37919092,25501117,-0.7968528866767883,102081.5546875,57.44,2.1404824256896973,25501,0.0,35.0,1
1663666925.47917795,25601104,-1.5145856142044067,102089.671875,57.43,0.5669100284576416,25601,0.0,35.0,1
1663666925.57920194,25701128,-1.2828766107559204,102087.0546875,57.43,-1.006662368774414,25701,0.0,35.0,1
1663666925.67917585,25801102,-1.0059561729431152,102083.90625,57.43,-1.4587774276733398,25801,0.0,35.0,1
1663666925.77922201,25901148,-1.0681220293045044,102084.6484375,57.44,-0.7664763927459717,25901,0.0,35.0,1
1663666925.87924600,26001172,-1.2489680051803589,102086.6796875,57.44,0.40266478061676025,26001,0.0,35.0,1
1663666925.97930503,26101231,-1.7236889600753784,102092.0546875,57.43,0.37793976068496704,26101,0.0,35.0,1
1663666926.07932782,26201254,-1.3167853355407715,102087.453125,57.43,-0.8689088225364685,26201,0.0,35.0,1
1663666926.17925286,26301179,-1.311133861541748,102087.3515625,57.42,-1.4216901063919067,26301,0.0,35.0,1
1663666926.27918386,26401110,-1.2885280847549438,102087.09375,57.43,-0.4980330765247345,26401,0.0,35.0,1
1663666926.37918591,26501112,-1.062470555305481,102084.53125,57.43,0.5969333648681641,26501,0.0,35.0,1
1663666926.47918701,26601113,-1.531540036201477,102089.828125,57.44,0.7823712229728699,26601,0.0,35.0,1
1663666926.57919002,26701116,-1.8536720275878906,102093.53125,57.44,0.0794733464717865,26701,0.0,35.0,1
1663666926.67922783,26801154,-1.429814100265503,102088.734375,57.45,-1.0932003259658813,26801,0.0,35.0,1
1663666926.77924800,26901174,-0.604703962802887,102079.359375,57.42,-1.1921005249023438,26901,0.0,35.0,1
1663666926.87931395,27001240,-1.2828766107559204,102087.0703125,57.44,0.7329211235046387,27001,0.0,35.0,1
1663666926.97934484,27101271,-0.7685956954956055,102081.25,57.42,2.354177951812744,27101,0.0,35.0,1
1663666927.07920694,27201133,-1.4128597974777222,102088.5390625,57.44,1.6230227947235107,27201,0.0,35.0,1
1663666927.17918491,27301111,-1.1133334636688232,102085.140625,57.43,-0.0035321281757205725,27301,0.0,35.0,1
1663666927.27916694,27401093,-1.0681220293045044,102084.609375,57.43,-0.7258567214012146,27401,0.0,35.0,1
1663666927.37916398,27501090,-0.7742471694946289,102081.3203125,57.44,-0.3231917917728424,27501,0.0,35.0,1
1663666927.47915697,27601083,-1.3280881643295288,102087.578125,57.42,0.5174598097801208,27601,0.0,35.0,1
1663666927.57920885,27701135,-1.1189849376678467,102085.2265625,57.44,0.526290237903595,27701,0.0,35.0,1
1663666927.67922783,27801154,-1.5824029445648193,102090.4375,57.44,-0.4662436842918396,27801,0.0,35.0,1
1663666927.77927804,27901204,-0.7120813131332397,102080.59375,57.42,-1.0561126470565796,27901,0.0,35.0,1
1663666927.87929893,28001225,-1.2885280847549438,102087.1015625,57.43,-0.3885364234447479,28001,0.0,35.0,1
1663666927.97917986,28101106,-1.1076821088790894,102085.0390625,57.43,0.5810386538505554,28101,0.0,35.0,1
1663666928.07915688,28201083,-1.2376651763916016,102086.5546875,57.44,0.501565158367157,28201,0.0,35.0,1
1663666928.17914200,28301068,-1.1528935432434082,102085.546875,57.44,-0.19780048727989197,28301,0.0,35.0,1
1663666928.27917290,28401099,-1.2546194791793823,102086.7578125,57.43,-0.3691096901893616,28401,0.0,35.0,1
1663666928.37916088,28501087,-0.8420644402503967,102082.0625,57.43,-0.06887684017419815,28501,0.0,35.0,1
1663666928.47921586,28601142,-1.1811507940292358,102085.921875,57.43,0.3390864133834839,28601,0.0,35.0,1
1663666928.57922387,28701150,-1.0737733840942383,102084.6796875,57.43,0.5669099688529968,28701,0.0,35.0,1
1663666928.67928386,28801210,-1.0116076469421387,102083.953125,57.43,0.28433799743652344,28801,0.0,35.0,1
1663666928.77929592,28901222,-1.102030634880066,102084.984375,57.44,-0.04238579422235489,28901,0.0,35.0,1
1663666928.87917900,29001105,-0.5255838632583618,102078.5078125,57.43,0.16777704656124115,29001,0.0,35.0,1
1663666928.97916985,29101096,-1.1585450172424316,102085.625,57.43,0.6764065623283386,29101,0.0,35.0,1
1663666929.07915998,29201086,-1.3619967699050903,102087.9765625,57.44,0.5969333052635193,29201,0.0,35.0,1
1663666929.17916393,29301090,-1.0511677265167236,102084.4296875,57.44,-0.5192258358001709,29301,0.0,35.0,1
1663666929.27914190,29401068,-0.6499155163764954,102079.9140625,57.43,-1.130287766456604,29401,0.0,35.0,1